Sand Point, AK

4:06 PM AKDT on September 26, 2016 (GMT -0800)
Sand Point

Weather History for PASD - January, 2013

Change the Weather History Date:

Wednesday, January 16, 2013

  Actual Average Record
Temperature  
Mean Temperature 30 °F -  
Max Temperature 35 °F 34 °F 44 °F (2002)
Min Temperature 24 °F 28 °F 15 °F (1998)
Degree Days  
Heating Degree Days 36    
Moisture  
Dew Point 24 °F    
Average Humidity 83    
Maximum Humidity 100    
Minimum Humidity 74    
Precipitation  
Precipitation 0.00 in - - ()
Sea Level Pressure  
Sea Level Pressure 30.08 in    
Wind  
Wind Speed 14 mph (NNW)    
Max Wind Speed 30 mph    
Max Gust Speed 37 mph    
Visibility 10 miles    
Events      
Averages and records for this station are not official NWS values.
T = Trace of Precipitation, MM = Missing Value Source: NWS Daily Summary

Daily Weather History Graph

Daily Weather History Graph

Search for Another Location

Airport or City:

Trip Planner

Search our weather history database for the weather conditions in past years. The results will help you decide how hot, cold, wet, or windy it might be!

Date:

Astronomy

Jan. 16, 2013 Rise Set
Actual Time 9:57 AM AKST 5:46 PM AKST
Civil Twilight 9:14 AM AKST 6:30 PM AKST
Nautical Twilight 8:28 AM AKST 7:16 PM AKST
Astronomical Twilight 7:44 AM AKST 8:00 PM AKST
Moon 11:32 AM AKST (1/16) No Moon Set
Length of Visible Light 9h 15m
Length of Day
7h 49m
Waxing Crescent, 29% of the Moon is Illuminated
Jan 16
Waxing Crescent
Jan 18
First Quarter
Jan 26
Full
Feb 3
Last Quarter
Feb 9
New

Hourly Weather History & Observations

Time (AKST) Temp. Windchill Dew Point Humidity Pressure Visibility Wind Dir Wind Speed Gust Speed Precip Events Conditions
12:16 AM 35.6 °F 32.8 °F 35.6 °F 100% 30.19 in 10.0 mi NNW 3.5 mph - N/A   Overcast
12:36 AM 35.6 °F 30.7 °F 35.6 °F 100% 30.19 in 10.0 mi NNW 5.8 mph - N/A   Overcast
12:56 AM 35.6 °F 30.7 °F 35.6 °F 100% 30.18 in 10.0 mi NW 5.8 mph - N/A   Overcast
1:16 AM 35.6 °F 29.2 °F 35.6 °F 100% 30.19 in 10.0 mi North 8.1 mph - N/A   Overcast
1:36 AM 33.8 °F 24.3 °F 33.8 °F 100% 30.19 in 10.0 mi North 13.8 mph - N/A   Overcast
1:56 AM 33.8 °F 23.2 °F 32.0 °F 93% 30.18 in 10.0 mi North 17.3 mph - N/A   Overcast
2:16 AM 33.8 °F 24.8 °F 32.0 °F 93% 30.19 in 10.0 mi North 12.7 mph - N/A   Overcast
3:16 AM 33.8 °F 23.5 °F 30.2 °F 87% 30.17 in 10.0 mi North 16.1 mph 19.6 mph N/A   Overcast
3:36 AM 33.8 °F 23.5 °F 30.2 °F 87% 30.17 in 10.0 mi North 16.1 mph 21.9 mph N/A   Overcast
3:56 AM 33.8 °F 23.5 °F 30.2 °F 87% 30.16 in 10.0 mi North 16.1 mph 20.7 mph N/A   Overcast
4:16 AM 33.8 °F 25.3 °F 30.2 °F 87% 30.17 in 10.0 mi North 11.5 mph - N/A   Mostly Cloudy
4:36 AM 33.8 °F 25.3 °F 28.4 °F 81% 30.17 in 10.0 mi North 11.5 mph - N/A   Scattered Clouds
4:56 AM 33.8 °F 26.4 °F 28.4 °F 81% 30.16 in 10.0 mi NNW 9.2 mph - N/A   Overcast
5:16 AM 32.0 °F 24.2 °F 28.4 °F 87% 30.17 in 10.0 mi NW 9.2 mph - N/A   Overcast
5:36 AM 32.0 °F 22.1 °F 28.4 °F 87% 30.16 in 10.0 mi NNW 13.8 mph - N/A   Mostly Cloudy
5:56 AM 30.2 °F 18.5 °F 28.4 °F 93% 30.14 in 10.0 mi NNW 17.3 mph - N/A   Clear
6:16 AM 30.2 °F 19.8 °F 28.4 °F 93% 30.15 in 10.0 mi North 13.8 mph 19.6 mph N/A   Clear
6:36 AM 30.2 °F 16.8 °F 28.4 °F 93% 30.14 in 10.0 mi NNW 23.0 mph - N/A   Clear
6:56 AM 30.2 °F 18.5 °F 28.4 °F 93% 30.13 in 10.0 mi North 17.3 mph - N/A   Scattered Clouds
7:16 AM 30.2 °F 16.2 °F 28.4 °F 93% 30.09 in 10.0 mi NNW 25.3 mph 29.9 mph N/A   Scattered Clouds
7:36 AM 30.2 °F 19.3 °F 26.6 °F 86% 30.12 in 10.0 mi NNW 15.0 mph 21.9 mph N/A   Scattered Clouds
7:56 AM 30.2 °F 18.9 °F 26.6 °F 86% 30.11 in 10.0 mi North 16.1 mph - N/A   Scattered Clouds
8:16 AM 30.2 °F 18.9 °F 26.6 °F 86% 30.10 in 10.0 mi NNW 16.1 mph 21.9 mph N/A   Scattered Clouds
8:36 AM 30.2 °F 19.8 °F 26.6 °F 86% 30.10 in 10.0 mi NNW 13.8 mph - N/A   Scattered Clouds
8:56 AM 30.2 °F 20.8 °F 26.6 °F 86% 30.09 in 10.0 mi North 11.5 mph - N/A   Partly Cloudy
9:16 AM 30.2 °F 21.9 °F 24.8 °F 80% 30.10 in 10.0 mi NNW 9.2 mph - N/A   Partly Cloudy
9:36 AM 30.2 °F 20.8 °F 24.8 °F 80% 30.11 in 10.0 mi North 11.5 mph - N/A   Partly Cloudy
9:56 AM 28.4 °F 18.0 °F 24.8 °F 86% 30.11 in 10.0 mi NNW 12.7 mph - N/A   Scattered Clouds
10:16 AM 28.4 °F 21.2 °F 24.8 °F 86% 30.11 in 10.0 mi North 6.9 mph 18.4 mph N/A   Scattered Clouds
10:36 AM 28.4 °F 17.5 °F 24.8 °F 86% 30.10 in 10.0 mi NNW 13.8 mph - N/A   Scattered Clouds
10:56 AM 28.4 °F 16.2 °F 24.8 °F 86% 30.09 in 10.0 mi NNW 17.3 mph - N/A   Partly Cloudy
11:16 AM 28.4 °F 16.2 °F 23.0 °F 80% 30.09 in 10.0 mi North 17.3 mph - N/A   Partly Cloudy
11:36 AM 28.4 °F 15.8 °F 24.8 °F 86% 30.08 in 10.0 mi North 18.4 mph - N/A   Clear
11:56 AM 28.4 °F 14.7 °F 23.0 °F 80% 30.07 in 10.0 mi NNW 21.9 mph 27.6 mph N/A   Scattered Clouds
12:16 PM 28.4 °F 16.6 °F 21.2 °F 74% 30.08 in 10.0 mi NNW 16.1 mph - N/A   Mostly Cloudy
12:36 PM 28.4 °F 16.6 °F 21.2 °F 74% 30.07 in 10.0 mi NNW 16.1 mph 24.2 mph N/A   Mostly Cloudy
12:56 PM 28.4 °F 16.6 °F 21.2 °F 74% 30.06 in 10.0 mi NNW 16.1 mph 23.0 mph N/A   Mostly Cloudy
1:16 PM 28.4 °F 15.4 °F 21.2 °F 74% 30.05 in 10.0 mi NNW 19.6 mph - N/A   Mostly Cloudy
1:36 PM 28.4 °F 15.8 °F 21.2 °F 74% 30.04 in 10.0 mi NNW 18.4 mph 23.0 mph N/A   Mostly Cloudy
1:56 PM 28.4 °F 13.8 °F 21.2 °F 74% 30.04 in 10.0 mi NNW 25.3 mph - N/A   Mostly Cloudy
2:16 PM 26.6 °F 11.1 °F 19.4 °F 74% 30.03 in 10.0 mi NNW 26.5 mph 32.2 mph N/A   Mostly Cloudy
2:36 PM 26.6 °F 11.7 °F 19.4 °F 74% 30.03 in 10.0 mi North 24.2 mph 32.2 mph N/A   Mostly Cloudy
2:56 PM 26.6 °F 11.1 °F 19.4 °F 74% 30.02 in 10.0 mi NNW 26.5 mph 32.2 mph N/A   Mostly Cloudy
3:16 PM 26.6 °F 10.3 °F 21.2 °F 80% 30.01 in 10.0 mi NNW 29.9 mph 36.8 mph N/A   Mostly Cloudy
3:36 PM 26.6 °F 13.1 °F 21.2 °F 80% 30.02 in 10.0 mi NNW 19.6 mph 34.5 mph N/A   Mostly Cloudy
3:56 PM 26.6 °F 10.8 °F 21.2 °F 80% 30.01 in 10.0 mi NNW 27.6 mph 34.5 mph N/A   Mostly Cloudy
4:16 PM 26.6 °F 12.4 °F 19.4 °F 74% 30.02 in 10.0 mi North 21.9 mph 29.9 mph N/A   Mostly Cloudy
4:36 PM 26.6 °F 13.4 °F 19.4 °F 74% 30.03 in 10.0 mi North 18.4 mph 27.6 mph N/A   Mostly Cloudy
4:56 PM 24.8 °F 11.5 °F 19.4 °F 80% 30.02 in 10.0 mi North 17.3 mph - N/A   Scattered Clouds
5:16 PM 24.8 °F 13.4 °F 19.4 °F 80% 30.02 in 10.0 mi North 12.7 mph 23.0 mph N/A   Scattered Clouds
5:36 PM 24.8 °F 10.7 °F 19.4 °F 80% 30.01 in 10.0 mi NNW 19.6 mph 25.3 mph N/A   Scattered Clouds
5:56 PM 24.8 °F 11.1 °F 19.4 °F 80% 30.00 in - North 18.4 mph 24.2 mph N/A   Scattered Clouds
6:16 PM 24.8 °F 12.4 °F 19.4 °F 80% 30.01 in 10.0 mi North 15.0 mph 20.7 mph N/A   Scattered Clouds
6:36 PM 24.8 °F 10.7 °F 19.4 °F 80% 30.01 in 10.0 mi NNW 19.6 mph - N/A   Scattered Clouds
6:56 PM 24.8 °F 12.4 °F 19.4 °F 80% 30.01 in 10.0 mi North 15.0 mph - N/A   Scattered Clouds
7:16 PM 24.8 °F 13.4 °F 19.4 °F 80% 30.01 in 10.0 mi North 12.7 mph - N/A   Scattered Clouds
7:36 PM 24.8 °F 11.5 °F 19.4 °F 80% 30.01 in 10.0 mi North 17.3 mph 20.7 mph N/A   Scattered Clouds
7:56 PM 24.8 °F 10.3 °F 19.4 °F 80% 30.01 in 10.0 mi North 20.7 mph 25.3 mph N/A   Scattered Clouds
8:16 PM 24.8 °F 11.5 °F 19.4 °F 80% 30.01 in 10.0 mi North 17.3 mph - N/A   Clear
8:36 PM 24.8 °F 11.1 °F 19.4 °F 80% 30.01 in 10.0 mi NNW 18.4 mph - N/A   Clear
8:56 PM 24.8 °F 11.5 °F 19.4 °F 80% 30.02 in 10.0 mi NNW 17.3 mph - N/A   Clear
9:16 PM 24.8 °F 11.1 °F 19.4 °F 80% 30.02 in 10.0 mi NNW 18.4 mph - N/A   Clear
9:36 PM 24.8 °F 10.7 °F 19.4 °F 80% 30.02 in 10.0 mi NNW 19.6 mph - N/A   Clear
9:56 PM 24.8 °F 11.1 °F 19.4 °F 80% 30.02 in 10.0 mi NNW 18.4 mph - N/A   Clear
10:16 PM 24.8 °F 11.9 °F 19.4 °F 80% 30.03 in 10.0 mi NNW 16.1 mph - N/A   Clear
10:36 PM 24.8 °F 10.7 °F 19.4 °F 80% 30.02 in 10.0 mi NNW 19.6 mph - N/A   Clear
10:56 PM 24.8 °F 11.9 °F 19.4 °F 80% 30.02 in 10.0 mi NNW 16.1 mph - N/A   Clear
11:16 PM 24.8 °F 12.9 °F 19.4 °F 80% 30.02 in 10.0 mi North 13.8 mph - N/A   Clear
11:36 PM 24.8 °F 13.4 °F 19.4 °F 80% 30.01 in 10.0 mi NNW 12.7 mph - N/A   Clear
11:56 PM 24.8 °F 12.4 °F 21.2 °F 86% 29.99 in 10.0 mi North 15.0 mph - N/A   Clear